Retour au catalogue

STARLINK-31317

ActifCommunicationsVLEO
NORAD 58931·PAYLOAD·🇺🇸 United States

Lancé Feb 10, 2024 depuis Vandenberg Space Force Base

Loading…

Prochains Passages (prochaines 24 heures)

TLE

FraisSource: CelesTrak SupGP

Époque: Sep 15, 2026, 02:31 UTC

1 58931C 24027A   26258.10534722  .00010979  00000+0  32440-3 0  2587
2 58931  53.1564 146.7409 0001274  80.4145 221.1350 15.34381867    10

Suivez STARLINK-31317 en temps réel avec AllMySat

Download on the App Store